Kezdőlap
METAR-TAF:

METAR-TAF

Repülőterek :

Oelwein Municipal Airport

Oelwein, Iowa, Amerikai Egyesült Államok

földrajzi szélesség: 42-40-51N, földrajzi hosszúság: 091-58-28W, magasság: 328 m

Jelenlegi meteorológiai megfigyelések

A jelentés 26 perccel ezelõtt készült, 16:55 UTC
Dél-délkeleti szél 6 kt
Hőmérséklet 2°C
Páratartalom 80%
Légköri nyomás 1021 hPa
Látótávolság: 16.1 km
Derült ég

METAR: KOLZ 081655Z AUTO 16006KT 10SM CLR 02/M01 A3015 RMK A01

Idő: 11:21 (17:21 UTC)


TAF: hiányzik

Meteorológiai megfigyelések és előrejelzések több, mint 4000 repülőtéren (METAR és TAF jelentéseket).

A térképen piros és sárga pontok jelzik az elérhető meteorológiai állomásokat.

Mozgassa az egeret a pont fölött, hogy megjelenjen az állomás neve.

Azután kattintson az időjárási megfigyelések és előrejelzések megtekintéséhez.

A térkép megváltoztatása: kattintson a fekete keresztel jelölt zöld gombra ráközelítéshez, a vonallal jelölt zöld gombra távolításhoz, vagy a zöld nyilakra a szomszédos térképek eléréséhez.


METAR-TAF: